MVC015 SKRG-SPZO

Flight info

Callsign MVC015
Flight time 2h 56m
Altitude 35000
Route ISVAT2B ISVAT W65 MQU UL305 NIRBU UN420 ROLUS UL300 LOMOL DCT CEMIL
Aircraft A320/M-SDE3FGHIRWY/LB1

Departure

Time 2026-04-26 20:17
Airport Jose Maria Córdova International Airport (SKRG)

Arrival

Time 2026-04-26 23:13
Airport Alejandro Velasco Astete International Airport (SPZO)
Time Latitude Longitude Altitude Speed Heading
2026-04-26 19:47 6.17343 -75.42941 7018 ft 0 kts 191°
2026-04-26 20:06 6.17360 -75.42938 7022 ft 3 kts 191°
2026-04-26 20:07 6.17381 -75.42933 7022 ft 3 kts 191°
2026-04-26 20:07 6.17390 -75.42932 7021 ft 0 kts 191°
2026-04-26 20:09 6.17387 -75.42919 7023 ft 7 kts 98°
2026-04-26 20:09 6.17391 -75.42861 7018 ft 8 kts 85°
2026-04-26 20:09 6.17387 -75.42797 7018 ft 10 kts 98°
2026-04-26 20:10 6.17355 -75.42722 7021 ft 17 kts 121°
2026-04-26 20:10 6.17273 -75.42646 7020 ft 15 kts 152°
2026-04-26 20:10 6.17186 -75.42625 7017 ft 11 kts 173°
2026-04-26 20:10 6.17136 -75.42620 7017 ft 11 kts 174°
2026-04-26 20:11 6.17051 -75.42593 7016 ft 15 kts 151°
2026-04-26 20:11 6.16957 -75.42541 7016 ft 16 kts 151°
2026-04-26 20:11 6.16853 -75.42488 7004 ft 19 kts 162°
2026-04-26 20:12 6.16589 -75.42486 6993 ft 19 kts 176°
2026-04-26 20:12 6.16455 -75.42484 6986 ft 20 kts 180°
2026-04-26 20:12 6.16320 -75.42478 6981 ft 19 kts 178°
2026-04-26 20:12 6.16191 -75.42476 6978 ft 17 kts 179°
2026-04-26 20:13 6.16078 -75.42476 6976 ft 15 kts 180°
2026-04-26 20:13 6.15980 -75.42475 6976 ft 14 kts 180°
2026-04-26 20:13 6.15865 -75.42474 6975 ft 18 kts 179°
2026-04-26 20:13 6.15741 -75.42471 6975 ft 18 kts 180°
2026-04-26 20:14 6.15628 -75.42470 6975 ft 14 kts 180°
2026-04-26 20:14 6.15535 -75.42469 6976 ft 15 kts 179°
2026-04-26 20:14 6.15391 -75.42466 6977 ft 22 kts 181°
2026-04-26 20:14 6.15251 -75.42469 6977 ft 18 kts 180°
2026-04-26 20:15 6.15136 -75.42469 6977 ft 15 kts 181°
2026-04-26 20:15 6.15025 -75.42469 6978 ft 19 kts 179°
2026-04-26 20:15 6.14898 -75.42451 6975 ft 16 kts 144°
2026-04-26 20:15 6.14875 -75.42380 6975 ft 15 kts 77°
2026-04-26 20:16 6.14966 -75.42302 6977 ft 17 kts 16°
2026-04-26 20:16 6.15006 -75.42302 6978 ft 0 kts 354°
2026-04-26 20:16 6.15118 -75.42309 6980 ft 45 kts 358°
2026-04-26 20:16 6.15682 -75.42309 6980 ft 116 kts
2026-04-26 20:17 6.16672 -75.42309 6995 ft 167 kts 360°
2026-04-26 20:17 6.17904 -75.42300 7667 ft 170 kts
2026-04-26 20:17 6.19159 -75.42261 8223 ft 185 kts
2026-04-26 20:17 6.20511 -75.42265 8701 ft 205 kts
2026-04-26 20:18 6.21886 -75.41825 9278 ft 216 kts 41°
2026-04-26 20:18 6.22642 -75.40545 9928 ft 218 kts 82°
2026-04-26 20:18 6.22388 -75.39064 10333 ft 221 kts 120°
2026-04-26 20:18 6.21546 -75.37762 10750 ft 223 kts 126°
2026-04-26 20:19 6.20635 -75.36494 11181 ft 225 kts 127°
2026-04-26 20:19 6.19717 -75.35235 11617 ft 227 kts 127°
2026-04-26 20:19 6.18784 -75.33949 12079 ft 229 kts 126°
2026-04-26 20:19 6.17851 -75.32648 12522 ft 230 kts 127°
2026-04-26 20:20 6.16650 -75.31581 12786 ft 239 kts 155°
2026-04-26 20:20 6.15050 -75.30947 12911 ft 255 kts 160°
2026-04-26 20:20 6.13334 -75.30336 13057 ft 270 kts 161°
2026-04-26 20:20 6.11504 -75.29692 13275 ft 285 kts 161°
2026-04-26 20:21 6.09572 -75.28982 13413 ft 306 kts 160°
2026-04-26 20:21 6.07518 -75.28193 13531 ft 326 kts 159°
2026-04-26 20:21 6.05345 -75.27330 13631 ft 345 kts 158°
2026-04-26 20:21 6.03059 -75.26399 13749 ft 362 kts 158°
2026-04-26 20:22 6.00681 -75.25417 13871 ft 377 kts 158°
2026-04-26 20:22 5.98225 -75.24397 14183 ft 384 kts 158°
2026-04-26 20:22 5.95746 -75.23365 14597 ft 388 kts 158°
2026-04-26 20:22 5.93245 -75.22325 15035 ft 391 kts 158°
2026-04-26 20:23 5.90725 -75.21280 15502 ft 393 kts 158°
2026-04-26 20:23 5.88186 -75.20227 15961 ft 396 kts 158°
2026-04-26 20:23 5.85626 -75.19169 16422 ft 399 kts 158°
2026-04-26 20:23 5.83084 -75.18122 16867 ft 402 kts 158°
2026-04-26 20:24 5.80488 -75.17054 17326 ft 404 kts 158°
2026-04-26 20:24 5.77877 -75.15979 17767 ft 407 kts 158°
2026-04-26 20:24 5.75242 -75.14891 18207 ft 410 kts 158°
2026-04-26 20:24 5.72593 -75.13797 18593 ft 413 kts 158°
2026-04-26 20:25 5.69929 -75.12696 18994 ft 415 kts 158°
2026-04-26 20:25 5.68123 -75.11949 19270 ft 417 kts 158°
2026-04-26 20:25 5.64561 -75.10468 19785 ft 420 kts 158°
2026-04-26 20:25 5.61855 -75.09335 20173 ft 422 kts 158°
2026-04-26 20:26 5.59139 -75.08196 20553 ft 424 kts 158°
2026-04-26 20:26 5.56408 -75.07055 20937 ft 426 kts 158°
2026-04-26 20:26 5.53658 -75.05912 21298 ft 429 kts 158°
2026-04-26 20:26 5.50896 -75.04766 21648 ft 431 kts 158°
2026-04-26 20:27 5.48119 -75.03612 21982 ft 433 kts 157°
2026-04-26 20:27 5.45322 -75.02449 22317 ft 436 kts 157°
2026-04-26 20:27 5.42521 -75.01285 22637 ft 438 kts 157°
2026-04-26 20:27 5.39700 -75.00112 22955 ft 440 kts 157°
2026-04-26 20:28 5.36864 -74.98932 23272 ft 442 kts 157°
2026-04-26 20:28 5.34020 -74.97747 23563 ft 444 kts 157°
2026-04-26 20:28 5.31162 -74.96553 23829 ft 445 kts 157°
2026-04-26 20:28 5.28298 -74.95358 24114 ft 446 kts 157°
2026-04-26 20:29 5.25465 -74.94179 24394 ft 447 kts 157°
2026-04-26 20:29 5.22540 -74.92992 24676 ft 449 kts 160°
2026-04-26 20:29 5.19557 -74.92200 24943 ft 451 kts 170°
2026-04-26 20:29 5.16444 -74.91894 25222 ft 452 kts 176°
2026-04-26 20:30 5.13293 -74.91737 25494 ft 454 kts 176°
2026-04-26 20:30 5.10177 -74.91573 25785 ft 455 kts 176°
2026-04-26 20:30 5.07023 -74.91397 26188 ft 453 kts 176°
2026-04-26 20:30 5.03886 -74.91217 26609 ft 451 kts 176°
2026-04-26 20:31 5.00750 -74.91037 27006 ft 450 kts 176°
2026-04-26 20:31 4.97627 -74.90859 27396 ft 449 kts 176°
2026-04-26 20:31 4.94510 -74.90683 27797 ft 448 kts 176°
2026-04-26 20:31 4.91397 -74.90511 28212 ft 447 kts 176°
2026-04-26 20:32 4.88293 -74.90341 28638 ft 446 kts 176°
2026-04-26 20:32 4.85194 -74.90171 29058 ft 445 kts 176°
2026-04-26 20:32 4.82188 -74.90006 29468 ft 444 kts 176°
2026-04-26 20:32 4.79018 -74.89832 29922 ft 443 kts 176°
2026-04-26 20:33 4.75992 -74.89668 30303 ft 442 kts 176°
2026-04-26 20:33 4.72924 -74.89501 30695 ft 441 kts 176°
2026-04-26 20:33 4.69870 -74.89334 31092 ft 439 kts 176°
2026-04-26 20:33 4.66821 -74.89166 31497 ft 438 kts 176°
2026-04-26 20:34 4.63789 -74.89001 31908 ft 436 kts 176°
2026-04-26 20:34 4.60762 -74.88837 32323 ft 434 kts 176°
2026-04-26 20:34 4.57904 -74.88681 32725 ft 433 kts 176°
2026-04-26 20:34 4.54777 -74.88509 33157 ft 431 kts 176°
2026-04-26 20:35 4.51783 -74.88344 33499 ft 429 kts 176°
2026-04-26 20:35 4.48806 -74.88180 33874 ft 428 kts 177°
2026-04-26 20:35 4.45889 -74.88019 34186 ft 427 kts 177°
2026-04-26 20:35 4.42963 -74.87857 34483 ft 426 kts 177°
2026-04-26 20:36 4.40008 -74.87694 34729 ft 427 kts 177°
2026-04-26 20:36 4.33996 -74.87367 34787 ft 439 kts 177°
2026-04-26 20:37 4.27789 -74.87027 34784 ft 454 kts 177°
2026-04-26 20:37 4.21422 -74.86684 34781 ft 460 kts 178°
2026-04-26 20:38 4.15074 -74.87297 34805 ft 461 kts 190°
2026-04-26 20:38 4.08747 -74.88404 34826 ft 461 kts 189°
2026-04-26 20:39 4.02416 -74.89482 34844 ft 462 kts 189°
2026-04-26 20:39 3.96082 -74.90562 34869 ft 462 kts 189°
2026-04-26 20:40 3.89742 -74.91665 34880 ft 462 kts 190°
2026-04-26 20:40 3.83407 -74.92776 34881 ft 463 kts 190°
2026-04-26 20:41 3.77063 -74.93885 34884 ft 463 kts 190°
2026-04-26 20:41 3.70710 -74.94980 34888 ft 463 kts 189°
2026-04-26 20:42 3.64357 -74.96076 34892 ft 464 kts 190°
2026-04-26 20:42 3.57999 -74.97181 34889 ft 464 kts 190°
2026-04-26 20:43 3.51675 -74.98282 34888 ft 464 kts 190°
2026-04-26 20:43 3.45308 -74.99393 34891 ft 465 kts 190°
2026-04-26 20:44 3.38929 -75.00501 34893 ft 465 kts 189°
2026-04-26 20:44 3.32546 -75.01604 34896 ft 466 kts 189°
2026-04-26 20:45 3.26155 -75.02710 34898 ft 466 kts 189°
2026-04-26 20:45 3.19765 -75.03823 34901 ft 466 kts 189°
2026-04-26 20:46 3.13374 -75.04935 34900 ft 466 kts 189°
2026-04-26 20:46 3.06974 -75.06041 34900 ft 466 kts 189°
2026-04-26 20:47 3.00574 -75.07138 34898 ft 467 kts 189°
2026-04-26 20:47 2.94216 -75.08232 34899 ft 467 kts 189°
2026-04-26 20:48 2.87818 -75.09348 34902 ft 467 kts 189°
2026-04-26 20:48 2.81410 -75.10466 34909 ft 467 kts 189°
2026-04-26 20:49 2.75001 -75.11576 34923 ft 467 kts 189°
2026-04-26 20:49 2.68591 -75.12692 34946 ft 468 kts 189°
2026-04-26 20:50 2.62178 -75.13808 34960 ft 468 kts 189°
2026-04-26 20:50 2.55762 -75.14918 34971 ft 468 kts 189°
2026-04-26 20:51 2.49337 -75.16026 34973 ft 468 kts 189°
2026-04-26 20:51 2.42957 -75.17130 34980 ft 468 kts 189°
2026-04-26 20:52 2.36534 -75.18241 34981 ft 469 kts 189°
2026-04-26 20:52 2.30105 -75.19351 34986 ft 469 kts 189°
2026-04-26 20:53 2.23675 -75.20468 34983 ft 469 kts 189°
2026-04-26 20:53 2.17242 -75.21585 34988 ft 469 kts 189°
2026-04-26 20:54 2.10813 -75.22701 34981 ft 469 kts 189°
2026-04-26 20:54 2.04379 -75.23815 34980 ft 469 kts 189°
2026-04-26 20:55 1.97946 -75.24926 34976 ft 469 kts 189°
2026-04-26 20:55 1.91511 -75.26038 34969 ft 469 kts 189°
2026-04-26 20:56 1.85071 -75.27152 34960 ft 469 kts 189°
2026-04-26 20:56 1.78684 -75.28262 34958 ft 469 kts 189°
2026-04-26 20:57 1.72243 -75.29302 34937 ft 469 kts 183°
2026-04-26 20:57 1.68989 -75.29258 34932 ft 468 kts 172°
2026-04-26 20:57 1.65808 -75.28603 34928 ft 467 kts 162°
2026-04-26 20:57 1.62816 -75.27359 34924 ft 466 kts 151°
2026-04-26 20:58 1.60026 -75.25704 34919 ft 466 kts 149°
2026-04-26 20:58 1.54464 -75.22366 34913 ft 467 kts 149°
2026-04-26 20:59 1.48880 -75.19049 34910 ft 467 kts 149°
2026-04-26 20:59 1.43290 -75.15721 34909 ft 467 kts 149°
2026-04-26 21:00 1.37707 -75.12387 34911 ft 468 kts 149°
2026-04-26 21:00 1.32152 -75.09075 34908 ft 468 kts 149°
2026-04-26 21:01 1.26561 -75.05735 34914 ft 468 kts 149°
2026-04-26 21:01 1.20976 -75.02392 34904 ft 468 kts 149°
2026-04-26 21:02 1.15383 -74.99055 34900 ft 468 kts 149°
2026-04-26 21:02 1.09787 -74.95706 34898 ft 469 kts 149°
2026-04-26 21:03 1.04189 -74.92367 34895 ft 469 kts 149°
2026-04-26 21:03 0.99530 -74.89590 34894 ft 469 kts 149°
2026-04-26 21:04 0.93010 -74.85704 34884 ft 469 kts 149°
2026-04-26 21:04 0.88313 -74.82897 34877 ft 470 kts 149°
2026-04-26 21:05 0.82705 -74.79541 34877 ft 470 kts 149°
2026-04-26 21:05 0.77120 -74.76210 34871 ft 470 kts 149°
2026-04-26 21:06 0.71499 -74.72860 34868 ft 471 kts 149°
2026-04-26 21:06 0.65875 -74.69504 34865 ft 471 kts 149°
2026-04-26 21:07 0.60248 -74.66142 34866 ft 471 kts 149°
2026-04-26 21:07 0.54616 -74.62780 34866 ft 471 kts 149°
2026-04-26 21:08 0.48979 -74.59421 34866 ft 472 kts 149°
2026-04-26 21:08 0.43343 -74.56057 34866 ft 472 kts 149°
2026-04-26 21:09 0.37705 -74.52694 34869 ft 472 kts 149°
2026-04-26 21:09 0.32104 -74.49354 34870 ft 472 kts 149°
2026-04-26 21:10 0.26464 -74.45981 34873 ft 472 kts 149°
2026-04-26 21:10 0.20832 -74.42615 34874 ft 472 kts 149°
2026-04-26 21:11 0.15200 -74.39254 34874 ft 472 kts 149°
2026-04-26 21:11 0.09564 -74.35898 34876 ft 471 kts 149°
2026-04-26 21:12 0.03932 -74.32543 34873 ft 471 kts 149°
2026-04-26 21:12 -0.01696 -74.29183 34878 ft 471 kts 149°
2026-04-26 21:13 -0.07314 -74.25826 34879 ft 471 kts 149°
2026-04-26 21:13 -0.12933 -74.22472 34878 ft 470 kts 149°
2026-04-26 21:14 -0.18552 -74.19120 34874 ft 470 kts 149°
2026-04-26 21:14 -0.24174 -74.15764 34878 ft 470 kts 149°
2026-04-26 21:15 -0.29755 -74.12440 34877 ft 470 kts 149°
2026-04-26 21:15 -0.35371 -74.09088 34874 ft 470 kts 149°
2026-04-26 21:16 -0.40981 -74.05732 34878 ft 470 kts 149°
2026-04-26 21:16 -0.46593 -74.02383 34878 ft 470 kts 149°
2026-04-26 21:17 -0.52207 -73.99030 34877 ft 470 kts 149°
2026-04-26 21:17 -0.57819 -73.95679 34875 ft 470 kts 149°
2026-04-26 21:18 -0.63418 -73.92339 34871 ft 470 kts 149°
2026-04-26 21:18 -0.69048 -73.88971 34869 ft 470 kts 149°
2026-04-26 21:19 -0.74665 -73.85624 34873 ft 470 kts 149°
2026-04-26 21:19 -0.80285 -73.82274 34868 ft 470 kts 149°
2026-04-26 21:20 -0.85899 -73.78922 34870 ft 470 kts 149°
2026-04-26 21:20 -0.91511 -73.75572 34867 ft 470 kts 149°
2026-04-26 21:21 -0.97133 -73.72220 34866 ft 470 kts 149°
2026-04-26 21:21 -1.02757 -73.68866 34866 ft 471 kts 149°
2026-04-26 21:22 -1.08380 -73.65501 34864 ft 471 kts 149°
2026-04-26 21:22 -1.14256 -73.62764 34861 ft 470 kts 165°
2026-04-26 21:23 -1.23675 -73.61454 34860 ft 471 kts 173°
2026-04-26 21:23 -1.29577 -73.60765 34859 ft 471 kts 173°
2026-04-26 21:24 -1.35483 -73.60081 34857 ft 471 kts 173°
2026-04-26 21:24 -1.41982 -73.59329 34859 ft 472 kts 173°
2026-04-26 21:25 -1.48509 -73.58563 34859 ft 473 kts 173°
2026-04-26 21:25 -1.55045 -73.57803 34857 ft 473 kts 173°
2026-04-26 21:26 -1.61598 -73.57048 34862 ft 474 kts 173°
2026-04-26 21:26 -1.68146 -73.56291 34857 ft 474 kts 173°
2026-04-26 21:27 -1.74702 -73.55533 34859 ft 474 kts 173°
2026-04-26 21:27 -1.81221 -73.54772 34860 ft 475 kts 173°
2026-04-26 21:28 -1.87795 -73.54005 34860 ft 475 kts 173°
2026-04-26 21:28 -1.94363 -73.53248 34865 ft 475 kts 173°
2026-04-26 21:29 -2.00937 -73.52487 34865 ft 476 kts 173°
2026-04-26 21:29 -2.07517 -73.51721 34859 ft 476 kts 173°
2026-04-26 21:30 -2.14102 -73.50959 34864 ft 476 kts 173°
2026-04-26 21:30 -2.20685 -73.50200 34863 ft 476 kts 173°
2026-04-26 21:31 -2.27273 -73.49430 34865 ft 477 kts 173°
2026-04-26 21:31 -2.33815 -73.48668 34866 ft 477 kts 173°
2026-04-26 21:32 -2.40409 -73.47908 34866 ft 477 kts 173°
2026-04-26 21:32 -2.47002 -73.47142 34874 ft 477 kts 173°
2026-04-26 21:33 -2.53591 -73.46378 34872 ft 477 kts 173°
2026-04-26 21:33 -2.60179 -73.45610 34874 ft 477 kts 173°
2026-04-26 21:34 -2.66771 -73.44844 34872 ft 477 kts 173°
2026-04-26 21:34 -2.73368 -73.44083 34872 ft 477 kts 173°
2026-04-26 21:35 -2.79963 -73.43316 34868 ft 477 kts 173°
2026-04-26 21:35 -2.86534 -73.42553 34867 ft 478 kts 173°
2026-04-26 21:36 -2.92066 -73.41905 34867 ft 478 kts 173°
2026-04-26 21:36 -2.99750 -73.41019 34866 ft 478 kts 173°
2026-04-26 21:37 -3.06364 -73.40250 34868 ft 479 kts 173°
2026-04-26 21:37 -3.12987 -73.39474 34863 ft 479 kts 173°
2026-04-26 21:38 -3.19614 -73.38701 34863 ft 480 kts 173°
2026-04-26 21:38 -3.26250 -73.37937 34859 ft 480 kts 173°
2026-04-26 21:39 -3.32890 -73.37167 34860 ft 481 kts 173°
2026-04-26 21:39 -3.39491 -73.36399 34862 ft 481 kts 173°
2026-04-26 21:40 -3.46143 -73.35627 34863 ft 481 kts 172°
2026-04-26 21:40 -3.52800 -73.34853 34863 ft 482 kts 172°
2026-04-26 21:41 -3.59462 -73.34075 34864 ft 482 kts 172°
2026-04-26 21:41 -3.66128 -73.33297 34864 ft 482 kts 172°
2026-04-26 21:42 -3.72800 -73.32523 34869 ft 483 kts 172°
2026-04-26 21:42 -3.79473 -73.31735 34866 ft 483 kts 171°
2026-04-26 21:43 -3.86094 -73.30626 34868 ft 482 kts 167°
2026-04-26 21:43 -3.92662 -73.29239 34868 ft 482 kts 166°
2026-04-26 21:44 -3.99187 -73.27870 34867 ft 482 kts 167°
2026-04-26 21:44 -4.05772 -73.26578 34861 ft 483 kts 168°
2026-04-26 21:45 -4.12380 -73.25317 34861 ft 483 kts 168°
2026-04-26 21:45 -4.18979 -73.24051 34860 ft 483 kts 168°
2026-04-26 21:46 -4.25571 -73.22773 34863 ft 482 kts 168°
2026-04-26 21:46 -4.32157 -73.21486 34863 ft 482 kts 167°
2026-04-26 21:47 -4.38700 -73.20208 34862 ft 482 kts 168°
2026-04-26 21:47 -4.45290 -73.18927 34863 ft 482 kts 168°
2026-04-26 21:48 -4.51872 -73.17648 34860 ft 482 kts 168°
2026-04-26 21:48 -4.58455 -73.16369 34860 ft 482 kts 168°
2026-04-26 21:49 -4.65038 -73.15092 34857 ft 482 kts 168°
2026-04-26 21:49 -4.71620 -73.13804 34859 ft 482 kts 168°
2026-04-26 21:50 -4.77085 -73.12732 34860 ft 482 kts 168°
2026-04-26 21:50 -4.84778 -73.11230 34855 ft 482 kts 168°
2026-04-26 21:51 -4.91320 -73.09956 34854 ft 482 kts 168°
2026-04-26 21:51 -4.97904 -73.08671 34855 ft 482 kts 168°
2026-04-26 21:52 -5.04494 -73.07389 34854 ft 482 kts 168°
2026-04-26 21:52 -5.11091 -73.06105 34849 ft 483 kts 168°
2026-04-26 21:53 -5.17679 -73.04819 34848 ft 483 kts 168°
2026-04-26 21:53 -5.24280 -73.03535 34848 ft 483 kts 168°
2026-04-26 21:54 -5.30885 -73.02245 34849 ft 484 kts 168°
2026-04-26 21:54 -5.37493 -73.00948 34844 ft 484 kts 168°
2026-04-26 21:55 -5.44106 -72.99658 34847 ft 484 kts 168°
2026-04-26 21:55 -5.50717 -72.98366 34846 ft 484 kts 168°
2026-04-26 21:56 -5.57290 -72.97085 34846 ft 485 kts 168°
2026-04-26 21:56 -5.63919 -72.95788 34848 ft 485 kts 167°
2026-04-26 21:57 -5.70543 -72.94485 34847 ft 485 kts 167°
2026-04-26 21:57 -5.77170 -72.93174 34849 ft 485 kts 167°
2026-04-26 21:58 -5.82679 -72.92089 34848 ft 485 kts 167°
2026-04-26 21:58 -5.89303 -72.90772 34853 ft 486 kts 167°
2026-04-26 21:59 -5.95941 -72.89461 34852 ft 486 kts 167°
2026-04-26 21:59 -6.02578 -72.88161 34854 ft 486 kts 167°
2026-04-26 22:00 -6.09222 -72.86854 34852 ft 486 kts 167°
2026-04-26 22:00 -6.15856 -72.85537 34851 ft 486 kts 167°
2026-04-26 22:01 -6.22500 -72.84216 34854 ft 487 kts 167°
2026-04-26 22:01 -6.29146 -72.82905 34848 ft 487 kts 167°
2026-04-26 22:02 -6.35748 -72.81599 34851 ft 487 kts 167°
2026-04-26 22:02 -6.42392 -72.80290 34853 ft 487 kts 167°
2026-04-26 22:03 -6.49050 -72.78977 34857 ft 487 kts 167°
2026-04-26 22:03 -6.55706 -72.77660 34855 ft 487 kts 167°
2026-04-26 22:04 -6.62341 -72.76342 34860 ft 487 kts 167°
2026-04-26 22:04 -6.69021 -72.75023 34860 ft 487 kts 167°
2026-04-26 22:05 -6.75667 -72.73704 34863 ft 487 kts 167°
2026-04-26 22:05 -6.82317 -72.72381 34864 ft 487 kts 167°
2026-04-26 22:06 -6.88968 -72.71064 34867 ft 487 kts 167°
2026-04-26 22:06 -6.95623 -72.69751 34873 ft 487 kts 167°
2026-04-26 22:07 -7.02233 -72.68446 34875 ft 487 kts 167°
2026-04-26 22:07 -7.08882 -72.67127 34873 ft 487 kts 167°
2026-04-26 22:08 -7.15521 -72.65811 34873 ft 486 kts 167°
2026-04-26 22:08 -7.22162 -72.64486 34877 ft 486 kts 167°
2026-04-26 22:09 -7.28797 -72.63167 34878 ft 486 kts 167°
2026-04-26 22:09 -7.35437 -72.61855 34878 ft 486 kts 167°
2026-04-26 22:10 -7.42067 -72.60541 34876 ft 486 kts 167°
2026-04-26 22:10 -7.48654 -72.59222 34877 ft 486 kts 167°
2026-04-26 22:11 -7.55286 -72.57902 34877 ft 485 kts 167°
2026-04-26 22:11 -7.61911 -72.56587 34876 ft 485 kts 167°
2026-04-26 22:12 -7.68532 -72.55272 34876 ft 485 kts 167°
2026-04-26 22:12 -7.75152 -72.53949 34877 ft 485 kts 167°
2026-04-26 22:13 -7.81768 -72.52603 34878 ft 485 kts 166°
2026-04-26 22:13 -7.88372 -72.51244 34878 ft 484 kts 166°
2026-04-26 22:14 -7.94981 -72.49892 34877 ft 484 kts 166°
2026-04-26 22:14 -8.01581 -72.48543 34881 ft 484 kts 166°
2026-04-26 22:15 -8.08191 -72.47193 34886 ft 484 kts 167°
2026-04-26 22:15 -8.14747 -72.45858 34886 ft 484 kts 166°
2026-04-26 22:16 -8.21339 -72.44496 34885 ft 483 kts 166°
2026-04-26 22:16 -8.27934 -72.43144 34884 ft 483 kts 167°
2026-04-26 22:17 -8.34528 -72.41803 34882 ft 483 kts 167°
2026-04-26 22:17 -8.41117 -72.40463 34881 ft 483 kts 167°
2026-04-26 22:18 -8.47707 -72.39110 34884 ft 483 kts 167°
2026-04-26 22:18 -8.54292 -72.37753 34882 ft 483 kts 167°
2026-04-26 22:19 -8.60873 -72.36401 34883 ft 483 kts 167°
2026-04-26 22:19 -8.67453 -72.35061 34882 ft 482 kts 167°
2026-04-26 22:20 -8.72926 -72.33945 34879 ft 482 kts 167°
2026-04-26 22:20 -8.80611 -72.32369 34883 ft 482 kts 167°
2026-04-26 22:21 -8.87187 -72.31020 34880 ft 482 kts 167°
2026-04-26 22:21 -8.93767 -72.29674 34879 ft 482 kts 167°
2026-04-26 22:22 -9.00298 -72.28349 34878 ft 482 kts 167°
2026-04-26 22:22 -9.06891 -72.27106 34877 ft 482 kts 168°
2026-04-26 22:23 -9.13490 -72.25892 34877 ft 482 kts 168°
2026-04-26 22:23 -9.20079 -72.24653 34878 ft 482 kts 168°
2026-04-26 22:24 -9.26672 -72.23405 34878 ft 482 kts 168°
2026-04-26 22:24 -9.33264 -72.22155 34878 ft 482 kts 168°
2026-04-26 22:25 -9.39853 -72.20909 34881 ft 481 kts 168°
2026-04-26 22:25 -9.46435 -72.19662 34883 ft 481 kts 168°
2026-04-26 22:26 -9.53006 -72.18411 34885 ft 481 kts 168°
2026-04-26 22:26 -9.59539 -72.17129 34883 ft 481 kts 167°
2026-04-26 22:27 -9.66100 -72.15813 34881 ft 481 kts 167°
2026-04-26 22:27 -9.72660 -72.14508 34882 ft 480 kts 167°
2026-04-26 22:28 -9.79219 -72.13212 34878 ft 480 kts 167°
2026-04-26 22:28 -9.85784 -72.11911 34879 ft 480 kts 167°
2026-04-26 22:29 -9.92344 -72.10616 34874 ft 480 kts 167°
2026-04-26 22:29 -9.98903 -72.09311 34876 ft 480 kts 167°
2026-04-26 22:30 -10.05467 -72.08001 34875 ft 480 kts 167°
2026-04-26 22:30 -10.12018 -72.06674 34874 ft 480 kts 167°
2026-04-26 22:31 -10.18571 -72.05343 34878 ft 480 kts 167°
2026-04-26 22:31 -10.25124 -72.04011 34877 ft 480 kts 167°
2026-04-26 22:32 -10.31634 -72.02682 34878 ft 480 kts 167°
2026-04-26 22:32 -10.38191 -72.01355 34878 ft 480 kts 167°
2026-04-26 22:33 -10.48017 -71.99363 34882 ft 480 kts 167°
2026-04-26 22:34 -10.54566 -71.98031 34880 ft 480 kts 167°
2026-04-26 22:34 -10.61110 -71.96704 34887 ft 480 kts 167°
2026-04-26 22:35 -10.67660 -71.95378 34887 ft 480 kts 168°
2026-04-26 22:35 -10.74205 -71.94055 34891 ft 479 kts 167°
2026-04-26 22:36 -10.80746 -71.92724 34891 ft 479 kts 167°
2026-04-26 22:36 -10.87289 -71.91391 34890 ft 480 kts 167°
2026-04-26 22:37 -10.93832 -71.90064 34890 ft 480 kts 167°
2026-04-26 22:37 -11.00341 -71.88741 34893 ft 480 kts 167°
2026-04-26 22:38 -11.06886 -71.87404 34892 ft 479 kts 167°
2026-04-26 22:38 -11.13424 -71.86066 34896 ft 479 kts 167°
2026-04-26 22:39 -11.19960 -71.84731 34900 ft 479 kts 167°
2026-04-26 22:39 -11.26497 -71.83398 34901 ft 479 kts 167°
2026-04-26 22:40 -11.33031 -71.82069 34898 ft 479 kts 167°
2026-04-26 22:40 -11.39564 -71.80745 34897 ft 478 kts 167°
2026-04-26 22:41 -11.46089 -71.79408 34896 ft 478 kts 167°
2026-04-26 22:41 -11.52614 -71.78071 34899 ft 478 kts 167°
2026-04-26 22:42 -11.59135 -71.76733 34900 ft 478 kts 167°
2026-04-26 22:42 -11.65609 -71.75414 34899 ft 477 kts 168°
2026-04-26 22:43 -11.72119 -71.74088 34897 ft 477 kts 168°
2026-04-26 22:43 -11.78622 -71.72754 34897 ft 477 kts 167°
2026-04-26 22:44 -11.85118 -71.71418 34903 ft 476 kts 168°
2026-04-26 22:44 -11.91614 -71.70088 34910 ft 476 kts 168°
2026-04-26 22:45 -11.98104 -71.68757 34914 ft 475 kts 168°
2026-04-26 22:45 -12.04586 -71.67423 34920 ft 475 kts 168°
2026-04-26 22:46 -12.11062 -71.66095 34926 ft 474 kts 168°
2026-04-26 22:46 -12.17537 -71.64771 34936 ft 474 kts 168°
2026-04-26 22:47 -12.23969 -71.63456 34940 ft 474 kts 168°
2026-04-26 22:47 -12.30440 -71.62129 34946 ft 474 kts 167°
2026-04-26 22:48 -12.36907 -71.60790 34954 ft 474 kts 167°
2026-04-26 22:48 -12.43368 -71.59458 34953 ft 474 kts 167°
2026-04-26 22:49 -12.49833 -71.58134 34962 ft 474 kts 168°
2026-04-26 22:49 -12.55202 -71.57032 34962 ft 474 kts 168°
2026-04-26 22:50 -12.61663 -71.55708 34967 ft 473 kts 168°
2026-04-26 22:50 -12.68113 -71.54366 34968 ft 473 kts 165°
2026-04-26 22:50 -12.72163 -71.52770 34969 ft 470 kts 150°
2026-04-26 22:51 -12.73999 -71.51598 34967 ft 469 kts 143°
2026-04-26 22:51 -12.76488 -71.49384 34963 ft 467 kts 132°
2026-04-26 22:51 -12.78475 -71.46813 34960 ft 466 kts 122°
2026-04-26 22:52 -12.81707 -71.41072 34951 ft 466 kts 119°
2026-04-26 22:52 -12.84915 -71.35297 34947 ft 466 kts 119°
2026-04-26 22:53 -12.88131 -71.29529 34944 ft 466 kts 119°
2026-04-26 22:53 -12.91353 -71.23770 34948 ft 466 kts 119°
2026-04-26 22:54 -12.94562 -71.18006 34693 ft 466 kts 119°
2026-04-26 22:54 -12.96166 -71.15121 34492 ft 466 kts 119°
2026-04-26 22:54 -12.97772 -71.12233 34286 ft 466 kts 119°
2026-04-26 22:54 -12.99378 -71.09345 34090 ft 466 kts 119°
2026-04-26 22:55 -13.00983 -71.06457 33879 ft 467 kts 119°
2026-04-26 22:55 -13.02589 -71.03562 33649 ft 467 kts 119°
2026-04-26 22:55 -13.04162 -71.00725 33410 ft 459 kts 119°
2026-04-26 22:55 -13.05722 -70.97912 33191 ft 448 kts 119°
2026-04-26 22:56 -13.07246 -70.95166 32965 ft 439 kts 119°
2026-04-26 22:56 -13.08738 -70.92476 32733 ft 429 kts 119°
2026-04-26 22:56 -13.10206 -70.89828 32300 ft 425 kts 119°
2026-04-26 22:56 -13.11659 -70.87202 31872 ft 422 kts 119°
2026-04-26 22:57 -13.13162 -70.84628 31440 ft 419 kts 126°
2026-04-26 22:57 -13.15139 -70.82459 31017 ft 416 kts 141°
2026-04-26 22:57 -13.17572 -70.80878 30611 ft 413 kts 155°
2026-04-26 22:57 -13.20281 -70.79940 30218 ft 411 kts 168°
2026-04-26 22:58 -13.23119 -70.79676 29774 ft 409 kts 182°
2026-04-26 22:58 -13.25923 -70.80106 29310 ft 408 kts 196°
2026-04-26 22:58 -13.28539 -70.81207 28856 ft 406 kts 210°
2026-04-26 22:58 -13.30813 -70.82907 28408 ft 405 kts 223°
2026-04-26 22:59 -13.32613 -70.85073 27969 ft 404 kts 237°
2026-04-26 22:59 -13.33916 -70.87617 27537 ft 402 kts 245°
2026-04-26 22:59 -13.35062 -70.90233 27114 ft 401 kts 245°
2026-04-26 22:59 -13.36206 -70.92845 26685 ft 400 kts 245°
2026-04-26 23:00 -13.37345 -70.95442 26270 ft 398 kts 245°
2026-04-26 23:00 -13.38477 -70.98031 25861 ft 397 kts 246°
2026-04-26 23:00 -13.39606 -71.00609 25459 ft 395 kts 245°
2026-04-26 23:00 -13.40732 -71.03175 25053 ft 393 kts 246°
2026-04-26 23:01 -13.41846 -71.05728 24661 ft 391 kts 246°
2026-04-26 23:01 -13.42952 -71.08269 24270 ft 389 kts 246°
2026-04-26 23:01 -13.44052 -71.10798 23891 ft 387 kts 246°
2026-04-26 23:01 -13.45149 -71.13310 23460 ft 384 kts 246°
2026-04-26 23:02 -13.46244 -71.15805 23012 ft 382 kts 246°
2026-04-26 23:02 -13.47323 -71.18256 22558 ft 380 kts 246°
2026-04-26 23:02 -13.48405 -71.20720 22113 ft 377 kts 246°
2026-04-26 23:02 -13.49476 -71.23166 21673 ft 375 kts 246°
2026-04-26 23:03 -13.50543 -71.25606 21237 ft 373 kts 246°
2026-04-26 23:03 -13.51601 -71.28029 20812 ft 371 kts 245°
2026-04-26 23:03 -13.52652 -71.30437 20383 ft 369 kts 245°
2026-04-26 23:03 -13.53698 -71.32842 19966 ft 367 kts 245°
2026-04-26 23:04 -13.54736 -71.35226 19554 ft 365 kts 245°
2026-04-26 23:04 -13.55773 -71.37609 19145 ft 363 kts 245°
2026-04-26 23:04 -13.56802 -71.39969 18745 ft 361 kts 245°
2026-04-26 23:04 -13.57828 -71.42319 18333 ft 359 kts 245°
2026-04-26 23:05 -13.58848 -71.44659 17872 ft 357 kts 245°
2026-04-26 23:05 -13.59862 -71.46985 17417 ft 356 kts 245°
2026-04-26 23:05 -13.60868 -71.49295 17136 ft 350 kts 246°
2026-04-26 23:05 -13.61841 -71.51533 17116 ft 335 kts 246°
2026-04-26 23:06 -13.62774 -71.53674 17119 ft 321 kts 246°
2026-04-26 23:06 -13.63656 -71.55736 17114 ft 309 kts 250°
2026-04-26 23:06 -13.64166 -71.57827 17112 ft 296 kts 264°
2026-04-26 23:06 -13.64197 -71.59895 17116 ft 286 kts 277°
2026-04-26 23:07 -13.63807 -71.61889 17076 ft 281 kts 289°
2026-04-26 23:07 -13.63166 -71.63756 16990 ft 272 kts 290°
2026-04-26 23:07 -13.62546 -71.65548 16906 ft 260 kts 290°
2026-04-26 23:07 -13.61951 -71.67270 16787 ft 251 kts 291°
2026-04-26 23:08 -13.61375 -71.68931 16677 ft 241 kts 291°
2026-04-26 23:08 -13.60824 -71.70524 16530 ft 230 kts 291°
2026-04-26 23:08 -13.60304 -71.72034 16300 ft 220 kts 291°
2026-04-26 23:08 -13.59794 -71.73508 15923 ft 218 kts 291°
2026-04-26 23:09 -13.59286 -71.74973 15543 ft 216 kts 291°
2026-04-26 23:09 -13.58785 -71.76410 15122 ft 212 kts 291°
2026-04-26 23:09 -13.58297 -71.77807 14701 ft 201 kts 291°
2026-04-26 23:09 -13.57844 -71.79107 14279 ft 192 kts 291°
2026-04-26 23:10 -13.57405 -71.80377 13802 ft 185 kts 291°
2026-04-26 23:10 -13.56975 -71.81618 13277 ft 184 kts 292°
2026-04-26 23:10 -13.56553 -71.82854 12898 ft 183 kts 291°
2026-04-26 23:10 -13.56138 -71.84101 12514 ft 185 kts 290°
2026-04-26 23:11 -13.55699 -71.85337 11967 ft 179 kts 296°
2026-04-26 23:11 -13.55142 -71.86441 12033 ft 175 kts 303°
2026-04-26 23:11 -13.54508 -71.87509 12053 ft 173 kts 302°
2026-04-26 23:11 -13.54144 -71.88642 11867 ft 164 kts 281°
2026-04-26 23:12 -13.53995 -71.89801 11507 ft 164 kts 277°
2026-04-26 23:12 -13.53867 -71.90973 11044 ft 167 kts 275°
2026-04-26 23:12 -13.53754 -71.92146 10809 ft 161 kts 275°
2026-04-26 23:12 -13.53639 -71.93232 10761 ft 124 kts 276°
2026-04-26 23:13 -13.53575 -71.93872 10802 ft 74 kts 276°
2026-04-26 23:13 -13.53539 -71.94220 10815 ft 32 kts 276°
2026-04-26 23:13 -13.53568 -71.94335 10815 ft 10 kts 212°
2026-04-26 23:13 -13.53586 -71.94341 10815 ft 0 kts 189°
2026-04-26 23:14 -13.53587 -71.94342 10815 ft 0 kts 189°
2026-04-26 23:14 -13.53588 -71.94342 10815 ft 1 kts 189°
2026-04-26 23:14 -13.53590 -71.94342 10815 ft 0 kts 189°
2026-04-26 23:15 -13.53597 -71.94343 10815 ft 2 kts 189°
2026-04-26 23:15 -13.53612 -71.94346 10815 ft 2 kts 189°
2026-04-26 23:15 -13.53630 -71.94350 10816 ft 3 kts 193°
2026-04-26 23:15 -13.53640 -71.94364 10816 ft 4 kts 252°
2026-04-26 23:16 -13.53650 -71.94393 10817 ft 5 kts 244°
2026-04-26 23:16 -13.53673 -71.94425 10817 ft 6 kts 227°
2026-04-26 23:16 -13.53700 -71.94432 10817 ft 0 kts 158°
2026-04-26 23:16 -13.53709 -71.94428 10817 ft 4 kts 157°
2026-04-26 23:17 -13.53722 -71.94421 10817 ft 1 kts 148°
2026-04-26 23:17 -13.53733 -71.94414 10817 ft 3 kts 148°
2026-04-26 23:17 -13.53740 -71.94409 10817 ft 0 kts 148°